Regional Weather Roundup
Issued by NWS

Home | Current Version | Previous Version | Text Only | Print | Product List | Glossary On
Versions: 1 2 3 4 5 6 7 8 9 10 11 12 13 14 15 16 17 18 19 20 21 22 23 24 25 26 27 28 29 30 31 32 33 34 35 36 37 38 39 40 41 42 43 44 45 46 47 48 49 50
000
ASUS43 KFSD 231310
RWRSD

WEATHER ROUNDUP FOR SOUTH DAKOTA
NATIONAL WEATHER SERVICE SIOUX FALLS SD
700 AM CST SUN NOV 23 2014

NOTE: "FAIR" INDICATES FEW OR NO CLOUDS BELOW 12,000 FEET WITH NO
SIGNIFICANT WEATHER AND/OR OBSTRUCTIONS TO VISIBILITY.


SDZ001>005-009-010-012>017-231400-
NORTHWEST AND NORTH CENTRAL SOUTH DAKOTA

CITY           SKY/WX    TMP DP  RH WIND       PRES   REMARKS
BUFFALO          N/A     35  25  66 W26       29.52R WCI  22
FAITH            N/A     34  27  75 W17       29.58R WCI  23
MOBRIDGE       MOCLDY    37  32  82 W14       29.49S
$$

SDZ012>016-024>037-041>051-057-063-072>074-231400-
SOUTHWEST AND SOUTH CENTRAL SOUTH DAKOTA

CITY           SKY/WX    TMP DP  RH WIND       PRES   REMARKS
RAPID CTY ARPT CLEAR     36  18  48 NW17      29.65R
PIERRE         MOCLDY    38  31  76 NW18G25   29.56R
CUSTER         CLEAR     29  12  49 NW15G28   29.61R WCI  18
ELLSWORTH AFB  CLEAR     37  18  46 NW24G33   29.63R
PHILIP         PTCLDY    41  28  60 NW15      29.60S
PINE RIDGE     PTCLDY    28  23  81 NW8       29.66R WCI  20
SPEARFISH      MOCLDY    34  18  51 W18G26    29.68R WCI  23
WINNER         PTSUNNY   42  32  67 NW16G24   29.58R
$$

SDZ004>011-016>023-039-040-231400-
NORTHEAST SOUTH DAKOTA

CITY           SKY/WX    TMP DP  RH WIND       PRES   REMARKS
ABERDEEN       CLOUDY    39  34  82 W14       29.47R
WATERTOWN      CLOUDY    37  33  85 NW10      29.46R
SISSETON         N/A     39  35  86 NW16      29.42R
$$

SDZ017-020-022-023-036>040-048>070-231400-
SOUTHEAST SOUTH DAKOTA

CITY           SKY/WX    TMP DP  RH WIND       PRES   REMARKS
SIOUX FALLS    CLOUDY    40  37  89 NW13      29.48R
HURON          CLOUDY    37  34  89 NW10      29.50R
CHAMBERLAIN    CLOUDY    38  35  87 W9        29.56R
MITCHELL       CLOUDY    41  36  82 NW12      29.51S
YANKTON        CLOUDY    43  32  65 NW18      29.51R
$$

ABBREVIATIONS USED IN REMARKS
   TC - TEMPERATURE IN CELSIUS
  WCI - WIND CHILL INDEX
   HX - HEAT INDEX
  VSB - VISIBILITY



USA.gov is the U.S. government's official web portal to all federal, state and local government web resources and services.